Location: Colorado Springs
(38.8340°N, 104.8210°W)
Time: 19:54:46
(UTC-07:00)

Vanguard 3 - All Passes

Search period start: 21 February 2018 00:00
Search period end: 03 March 2018 00:00
Orbit: 508 x 3264 km, 33.3° (Epoch: 21 February)

Date Brightness Start Highest point End Pass type
(mag) Time Alt. Az. Time Alt. Az. Time Alt. Az.
21 Feb - 14:02:46 10° SSW 14:07:24 21° SSE 14:10:50 10° ESE daylight
21 Feb - 16:14:34 10° WSW 16:18:39 36° S 16:22:04 10° ESE daylight
21 Feb - 18:26:21 10° WSW 18:29:34 28° S 18:33:10 10° SE visible
21 Feb - 20:39:08 10° SW 20:40:49 12° SSW 20:42:40 10° S visible
22 Feb - 12:49:00 10° SSW 12:53:41 17° SSE 12:57:14 10° ESE daylight
22 Feb - 15:00:25 10° SW 15:05:23 33° S 15:09:00 10° ESE daylight
22 Feb - 17:12:45 10° WSW 17:16:25 36° S 17:19:50 10° ESE daylight
22 Feb - 19:24:51 10° WSW 19:27:21 17° SSW 19:30:15 10° SSE visible
23 Feb - 11:36:06 10° S 11:39:38 13° SSE 11:42:35 10° SE daylight
23 Feb - 13:45:56 10° SW 13:51:54 28° SSE 13:55:57 10° ESE daylight
23 Feb - 15:58:41 10° WSW 16:03:14 40° S 16:06:45 10° ESE daylight
23 Feb - 18:11:03 10° WSW 18:14:08 24° SSW 18:17:18 10° SE visible
24 Feb - 12:31:26 10° SSW 12:38:06 23° SSE 12:42:40 10° ESE daylight
24 Feb - 14:44:07 10° WSW 14:49:55 39° S 14:53:51 10° ESE daylight
24 Feb - 16:57:06 10° WSW 17:00:59 34° S 17:04:21 10° ESE daylight
24 Feb - 19:10:11 10° SW 19:11:50 12° SSW 19:13:35 10° S visible
25 Feb - 11:17:18 10° SSW 11:23:56 18° SSE 11:28:47 10° ESE daylight
25 Feb - 13:29:07 10° SW 13:36:21 35° SSE 13:40:56 10° ESE daylight
25 Feb - 15:42:41 10° WSW 15:47:48 43° S 15:51:29 10° ESE daylight
25 Feb - 17:55:41 10° WSW 17:58:38 21° SSW 18:01:29 10° SSE daylight
26 Feb - 10:04:31 10° S 10:09:24 13° SSE 10:13:27 10° SE daylight
26 Feb - 12:14:01 10° SW 12:22:27 30° SSE 12:27:49 10° ESE daylight
26 Feb - 14:27:43 10° WSW 14:34:25 45° S 14:38:40 10° ESE daylight
26 Feb - 16:41:21 10° WSW 16:45:31 33° SSW 16:48:53 10° SE daylight
27 Feb - 10:59:08 10° SSW 11:08:10 24° SSE 11:14:14 10° ESE daylight
27 Feb - 13:12:17 10° WSW 13:20:45 42° S 13:25:49 10° E daylight
27 Feb - 15:26:36 10° WSW 15:32:18 45° S 15:36:12 10° ESE daylight
27 Feb - 17:40:18 10° WSW 17:43:05 18° SSW 17:45:39 10° SSE daylight
28 Feb - 09:45:04 10° S 09:53:28 18° SSE 09:59:44 10° ESE daylight
28 Feb - 11:56:39 10° SW 12:06:44 37° SSE 12:12:48 10° E daylight
28 Feb - 14:11:15 10° WSW 14:18:52 50° S 14:23:29 10° ESE daylight
28 Feb - 16:25:30 10° W 16:30:01 31° SSW 16:33:27 10° SE daylight
01 Mar - 08:33:21 10° SSE 08:38:27 12° SSE 08:42:52 10° SE daylight
01 Mar - 10:41:10 10° SSW 10:52:17 30° SSE 10:59:22 10° E daylight
01 Mar - 12:55:24 10° WSW 13:05:05 49° S 13:10:40 10° E daylight
01 Mar - 15:10:23 10° W 15:16:48 46° S 15:20:56 10° ESE daylight
01 Mar - 17:24:52 10° WSW 17:27:28 15° SSW 17:29:46 10° S daylight
02 Mar - 09:26:23 10° SSW 09:37:26 24° SSE 09:45:11 10° ESE daylight
02 Mar - 11:39:17 10° SW 11:50:55 44° SSE 11:57:39 10° E daylight
02 Mar - 13:54:41 10° WSW 14:03:15 54° S 14:08:16 10° ESE daylight
02 Mar - 16:09:33 10° W 16:14:27 30° SSW 16:18:00 10° SE daylight
